datetime,flow
2006-03-16,181.0
2006-03-17,191.0
2006-03-18,179.0
2006-03-19,176.0
2006-03-20,177.0
2006-03-21,192.0
2006-03-22,187.0
2006-03-23,179.0
2006-03-24,163.0
2006-03-25,164.0
2006-03-26,162.0
2006-03-27,147.0
2006-03-28,143.0
2006-03-29,123.0
2006-03-30,119.0
2006-03-31,117.0
2006-04-01,113.0
2006-04-02,107.0
2006-04-03,112.0
2006-04-04,113.0
2006-04-05,117.0
2006-04-06,113.0
2006-04-07,110.0
2006-04-08,117.0
2006-04-09,182.0
2006-04-10,183.0
2006-04-11,176.0
2006-04-12,175.0
2006-04-13,179.0
2006-04-14,209.0
2006-04-15,223.0
2006-04-16,275.0
2006-04-17,267.0
2006-04-18,246.0
2006-04-19,197.0
2006-04-20,149.0
2006-04-21,144.0
2006-04-22,142.0
2006-04-23,146.0
2006-04-24,153.0
2006-04-25,163.0
2006-04-26,171.0
2006-04-27,151.0
2006-04-28,153.0
2006-04-29,181.0
2006-04-30,200.0
2006-05-01,187.0
2006-05-02,156.0
2006-05-03,171.0
2006-05-04,157.0
2006-05-05,169.0
2006-05-06,163.0
2006-05-07,169.0
2006-05-08,158.0
2006-05-09,138.0
2006-05-10,134.0
2006-05-11,138.0
2006-05-12,277.0
2006-05-13,391.0
2006-05-14,284.0
2006-05-15,193.0
2006-05-16,143.0
2006-05-17,156.0
2006-05-18,138.0
2006-05-19,132.0
2006-05-20,132.0
2006-05-21,123.0
2006-05-22,132.0
2006-05-23,193.0
2006-05-24,265.0
2006-05-25,262.0
2006-05-26,315.0
2006-05-27,243.0
2006-05-28,246.0
2006-05-29,284.0
2006-05-30,348.0
2006-05-31,352.0
2006-06-01,359.0
2006-06-02,356.0
2006-06-03,344.0
2006-06-04,398.0
2006-06-05,398.0
2006-06-06,376.0
2006-06-07,395.0
2006-06-08,418.0
2006-06-09,403.0
2006-06-10,373.0
2006-06-11,404.0
2006-06-12,338.0
2006-06-13,314.0
2006-06-14,305.0
2006-06-15,301.0
2006-06-16,284.0
2006-06-17,311.0
2006-06-18,332.0
2006-06-19,333.0
2006-06-20,258.0
2006-06-21,231.0
2006-06-22,235.0
2006-06-23,224.0
2006-06-24,246.0
2006-06-25,247.0
2006-06-26,290.0
2006-06-27,678.0
2006-06-28,1190.0
2006-06-29,528.0
2006-06-30,437.0
2006-07-01,248.0
2006-07-02,173.0
2006-07-03,120.0
2006-07-04,87.0
2006-07-05,259.0
2006-07-06,1200.0
2006-07-07,1010.0
2006-07-08,437.0
2006-07-09,1460.0
2006-07-10,530.0
2006-07-11,367.0
2006-07-12,281.0
2006-07-13,166.0
2006-07-14,107.0
2006-07-15,73.3
2006-07-16,72.0
2006-07-17,64.4
2006-07-18,57.4
2006-07-19,54.7
2006-07-20,53.3
2006-07-21,45.8
2006-07-22,43.8
2006-07-23,102.0
2006-07-24,56.6
2006-07-25,33.8
2006-07-26,30.1
2006-07-27,262.0
2006-07-28,227.0
2006-07-29,705.0
2006-07-30,430.0
2006-07-31,458.0
2006-08-01,1950.0
2006-08-02,1040.0
2006-08-03,533.0
2006-08-04,481.0
2006-08-05,1000.0
2006-08-06,2610.0
2006-08-07,1930.0
2006-08-08,1160.0
2006-08-09,860.0
2006-08-10,777.0
2006-08-11,772.0
2006-08-12,703.0
2006-08-13,730.0
2006-08-14,1500.0
2006-08-15,1250.0
2006-08-16,1490.0
2006-08-17,1080.0
2006-08-18,779.0
2006-08-19,1160.0
2006-08-20,922.0
2006-08-21,923.0
2006-08-22,1100.0
2006-08-23,1760.0
2006-08-24,753.0
2006-08-25,761.0
2006-08-26,451.0
2006-08-27,391.0
2006-08-28,296.0
2006-08-29,201.0
2006-08-30,161.0
2006-08-31,124.0
2006-09-01,94.5
2006-09-02,193.0
2006-09-03,128.0
2006-09-04,109.0
2006-09-05,86.5
2006-09-06,62.7
2006-09-07,161.0
2006-09-08,315.0
2006-09-09,580.0
2006-09-10,173.0
2006-09-11,146.0
2006-09-12,153.0
2006-09-13,118.0
2006-09-14,73.8
2006-09-15,58.4
2006-09-16,57.9
2006-09-17,55.3
2006-09-18,55.6
2006-09-19,57.2
2006-09-20,57.1
2006-09-21,80.5
2006-09-22,115.0
2006-09-23,63.7
2006-09-24,60.3
2006-09-25,64.4
2006-09-26,66.7
2006-09-27,76.7
2006-09-28,70.3
2006-09-29,70.8
2006-09-30,
2006-10-01,
2006-10-02,
2006-10-03,
2006-10-04,
2006-10-05,
2006-10-06,
2006-10-07,
2006-10-08,
2006-10-09,
2006-10-10,
2006-10-11,
2006-10-12,
2006-10-13,
2006-10-14,
2006-10-15,
2006-10-16,
2006-10-17,
2006-10-18,
2006-10-19,
2006-10-20,
2006-10-21,
2006-10-22,
2006-10-23,
2006-10-24,
2006-10-25,
2006-10-26,
2006-10-27,
2006-10-28,
2006-10-29,
2006-10-30,
2006-10-31,
2006-11-01,
2006-11-02,
2006-11-03,
2006-11-04,
2006-11-05,
2006-11-06,
2006-11-07,
2006-11-08,
2006-11-09,
2006-11-10,
2006-11-11,
2006-11-12,
2006-11-13,
2006-11-14,
2006-11-15,
2006-11-16,
2006-11-17,
2006-11-18,
2006-11-19,
2006-11-20,
2006-11-21,
2006-11-22,
2006-11-23,
2006-11-24,
2006-11-25,
2006-11-26,
2006-11-27,
2006-11-28,
2006-11-29,
2006-11-30,
2006-12-01,
2006-12-02,
2006-12-03,
2006-12-04,
2006-12-05,
2006-12-06,
2006-12-07,
2006-12-08,
2006-12-09,
2006-12-10,
2006-12-11,
2006-12-12,
2006-12-13,
2006-12-14,
2006-12-15,
2006-12-16,
2006-12-17,
2006-12-18,
2006-12-19,
2006-12-20,
2006-12-21,
2006-12-22,
2006-12-23,
2006-12-24,
2006-12-25,
2006-12-26,
2006-12-27,
2006-12-28,
2006-12-29,
2006-12-30,
2006-12-31,
2007-01-01,
2007-01-02,
2007-01-03,
2007-01-04,
2007-01-05,
2007-01-06,
2007-01-07,
2007-01-08,
2007-01-09,
2007-01-10,
2007-01-11,
2007-01-12,
2007-01-13,
2007-01-14,
2007-01-15,
2007-01-16,
2007-01-17,
2007-01-18,
2007-01-19,
2007-01-20,
2007-01-21,
2007-01-22,
2007-01-23,
2007-01-24,
2007-01-25,
2007-01-26,
2007-01-27,
2007-01-28,
2007-01-29,
2007-01-30,
2007-01-31,
2007-02-01,
2007-02-02,
2007-02-03,
2007-02-04,
2007-02-05,
2007-02-06,
2007-02-07,
2007-02-08,
2007-02-09,
2007-02-10,
2007-02-11,
2007-02-12,
2007-02-13,
2007-02-14,
2007-02-15,
2007-02-16,
2007-02-17,
2007-02-18,
2007-02-19,
2007-02-20,
2007-02-21,
2007-02-22,
2007-02-23,
2007-02-24,
2007-02-25,
2007-02-26,
2007-02-27,
2007-02-28,
2007-03-01,
2007-03-02,
2007-03-03,
2007-03-04,
2007-03-05,
2007-03-06,
2007-03-07,
2007-03-08,
2007-03-09,
2007-03-10,
2007-03-11,
2007-03-12,
2007-03-13,
2007-03-14,
2007-03-15,
2007-03-16,
2007-03-17,
2007-03-18,
2007-03-19,
2007-03-20,
2007-03-21,
2007-03-22,
2007-03-23,
2007-03-24,
2007-03-25,
2007-03-26,
2007-03-27,
2007-03-28,
2007-03-29,
2007-03-30,
2007-03-31,
2007-04-01,
2007-04-02,
2007-04-03,
2007-04-04,
2007-04-05,
2007-04-06,
2007-04-07,
2007-04-08,
2007-04-09,
2007-04-10,
2007-04-11,
2007-04-12,
2007-04-13,
2007-04-14,
2007-04-15,
2007-04-16,
2007-04-17,
2007-04-18,
2007-04-19,
2007-04-20,
2007-04-21,
2007-04-22,
2007-04-23,
2007-04-24,
2007-04-25,
2007-04-26,
2007-04-27,
2007-04-28,
2007-04-29,
2007-04-30,
2007-05-01,
2007-05-02,
2007-05-03,
2007-05-04,
2007-05-05,
2007-05-06,
2007-05-07,
2007-05-08,
2007-05-09,
2007-05-10,
2007-05-11,
2007-05-12,
2007-05-13,
2007-05-14,
2007-05-15,
2007-05-16,
2007-05-17,
2007-05-18,
2007-05-19,
2007-05-20,
2007-05-21,
2007-05-22,
2007-05-23,
2007-05-24,
2007-05-25,
2007-05-26,
2007-05-27,
2007-05-28,
2007-05-29,
2007-05-30,
2007-05-31,
2007-06-01,
2007-06-02,
2007-06-03,
2007-06-04,
2007-06-05,
2007-06-06,
2007-06-07,
2007-06-08,
2007-06-09,
2007-06-10,
2007-06-11,
2007-06-12,
2007-06-13,
2007-06-14,
2007-06-15,
2007-06-16,
2007-06-17,
2007-06-18,
2007-06-19,
2007-06-20,
2007-06-21,
2007-06-22,
2007-06-23,
2007-06-24,
2007-06-25,
2007-06-26,
2007-06-27,
2007-06-28,
2007-06-29,
2007-06-30,
2007-07-01,
2007-07-02,
2007-07-03,
2007-07-04,
2007-07-05,
2007-07-06,
2007-07-07,
2007-07-08,
2007-07-09,
2007-07-10,
2007-07-11,
2007-07-12,
2007-07-13,
2007-07-14,
2007-07-15,
2007-07-16,
2007-07-17,
2007-07-18,
2007-07-19,
2007-07-20,
2007-07-21,
2007-07-22,
2007-07-23,
2007-07-24,
2007-07-25,
2007-07-26,
2007-07-27,
2007-07-28,
2007-07-29,
2007-07-30,
2007-07-31,
2007-08-01,
2007-08-02,
2007-08-03,
2007-08-04,
2007-08-05,
2007-08-06,
2007-08-07,
2007-08-08,
2007-08-09,
2007-08-10,
2007-08-11,
2007-08-12,
2007-08-13,
2007-08-14,
2007-08-15,
2007-08-16,
2007-08-17,
2007-08-18,
2007-08-19,
2007-08-20,
2007-08-21,
2007-08-22,
2007-08-23,
2007-08-24,
2007-08-25,
2007-08-26,
2007-08-27,
2007-08-28,
2007-08-29,
2007-08-30,
2007-08-31,
2007-09-01,
2007-09-02,
2007-09-03,
2007-09-04,
2007-09-05,
2007-09-06,
2007-09-07,
2007-09-08,
2007-09-09,
2007-09-10,
2007-09-11,
2007-09-12,
2007-09-13,
2007-09-14,
2007-09-15,
2007-09-16,
2007-09-17,
2007-09-18,
2007-09-19,
2007-09-20,
2007-09-21,
2007-09-22,
2007-09-23,
2007-09-24,
2007-09-25,
2007-09-26,
2007-09-27,
2007-09-28,
2007-09-29,
2007-09-30,51.9
2007-10-01,26.0
2007-10-02,101.0
2007-10-03,103.0
2007-10-04,80.0
2007-10-05,55.0
2007-10-06,43.3
2007-10-07,45.6
2007-10-08,47.9
2007-10-09,49.2
2007-10-10,50.0
2007-10-11,49.8
2007-10-12,50.1
2007-10-13,50.2
2007-10-14,50.7
2007-10-15,50.3
2007-10-16,49.6
2007-10-17,47.5
2007-10-18,43.1
2007-10-19,37.4
2007-10-20,34.3
2007-10-21,26.8
2007-10-22,27.9
2007-10-23,47.6
2007-10-24,47.9
2007-10-25,34.5
2007-10-26,32.3
2007-10-27,32.1
2007-10-28,32.1
2007-10-29,32.1
2007-10-30,32.1
2007-10-31,120.0
2007-11-01,368.0
2007-11-02,380.0
2007-11-03,348.0
2007-11-04,228.0
2007-11-05,247.0
2007-11-06,220.0
2007-11-07,234.0
2007-11-08,459.0
2007-11-09,451.0
2007-11-10,509.0
2007-11-11,532.0
2007-11-12,558.0
2007-11-13,557.0
2007-11-14,538.0
2007-11-15,565.0
2007-11-16,638.0
2007-11-17,672.0
2007-11-18,648.0
2007-11-19,606.0
2007-11-20,599.0
2007-11-21,637.0
2007-11-22,636.0
2007-11-23,592.0
2007-11-24,591.0
2007-11-25,654.0
2007-11-26,662.0
2007-11-27,654.0
2007-11-28,648.0
2007-11-29,581.0
2007-11-30,539.0
2007-12-01,726.0
2007-12-02,748.0
2007-12-03,853.0
2007-12-04,783.0
2007-12-05,756.0
2007-12-06,870.0
2007-12-07,919.0
2007-12-08,949.0
2007-12-09,985.0
2007-12-10,969.0
2007-12-11,1280.0
2007-12-12,1350.0
2007-12-13,1340.0
2007-12-14,1230.0
2007-12-15,1170.0
2007-12-16,1130.0
2007-12-17,1130.0
2007-12-18,993.0
2007-12-19,817.0
2007-12-20,829.0
2007-12-21,922.0
2007-12-22,962.0
2007-12-23,939.0
2007-12-24,864.0
2007-12-25,865.0
2007-12-26,872.0
2007-12-27,843.0
2007-12-28,782.0
2007-12-29,698.0
2007-12-30,605.0
2007-12-31,677.0
2008-01-01,753.0
2008-01-02,798.0
2008-01-03,810.0
2008-01-04,768.0
2008-01-05,683.0
2008-01-06,721.0
2008-01-07,784.0
2008-01-08,942.0
2008-01-09,948.0
2008-01-10,869.0
2008-01-11,818.0
2008-01-12,814.0
2008-01-13,879.0
2008-01-14,864.0
2008-01-15,847.0
2008-01-16,838.0
2008-01-17,760.0
2008-01-18,681.0
2008-01-19,665.0
2008-01-20,610.0
2008-01-21,562.0
2008-01-22,637.0
2008-01-23,691.0
2008-01-24,766.0
2008-01-25,822.0
2008-01-26,882.0
2008-01-27,715.0
2008-01-28,788.0
2008-01-29,798.0
2008-01-30,798.0
2008-01-31,883.0
2008-02-01,821.0
2008-02-02,800.0
2008-02-03,827.0
2008-02-04,824.0
2008-02-05,839.0
2008-02-06,795.0
2008-02-07,792.0
2008-02-08,783.0
2008-02-09,783.0
2008-02-10,785.0
2008-02-11,787.0
2008-02-12,784.0
2008-02-13,804.0
2008-02-14,793.0
2008-02-15,806.0
2008-02-16,893.0
2008-02-17,994.0
2008-02-18,1040.0
2008-02-19,1060.0
2008-02-20,1040.0
2008-02-21,1070.0
2008-02-22,1080.0
2008-02-23,1210.0
2008-02-24,1060.0
2008-02-25,806.0
2008-02-26,1130.0
2008-02-27,1270.0
2008-02-28,1420.0
2008-02-29,1570.0
2008-03-01,1420.0
2008-03-02,1690.0
2008-03-03,1700.0
2008-03-04,1510.0
2008-03-05,2480.0
2008-03-06,1960.0
2008-03-07,1500.0
2008-03-08,1280.0
2008-03-09,1040.0
2008-03-10,801.0
2008-03-11,930.0
2008-03-12,1180.0
2008-03-13,1300.0
2008-03-14,1410.0
2008-03-15,1570.0
2008-03-16,1670.0
2008-03-17,1670.0
2008-03-18,1730.0
2008-03-19,1780.0
2008-03-20,1470.0
2008-03-21,1390.0
2008-03-22,1440.0
2008-03-23,1140.0
2008-03-24,1270.0
2008-03-25,1680.0
2008-03-26,1720.0
2008-03-27,2150.0
2008-03-28,2360.0
2008-03-29,2450.0
2008-03-30,2650.0
2008-03-31,2990.0
2008-04-01,3300.0
2008-04-02,3380.0
2008-04-03,3210.0
2008-04-04,2660.0
2008-04-05,3270.0
2008-04-06,3070.0
2008-04-07,2710.0
2008-04-08,2590.0
2008-04-09,2900.0
2008-04-10,2660.0
2008-04-11,3120.0
2008-04-12,2830.0
2008-04-13,2730.0
2008-04-14,2780.0
2008-04-15,2270.0
2008-04-16,1770.0
2008-04-17,1660.0
2008-04-18,2140.0
2008-04-19,2460.0
2008-04-20,2830.0
2008-04-21,2540.0
2008-04-22,2290.0
2008-04-23,2650.0
2008-04-24,2860.0
2008-04-25,3090.0
2008-04-26,3650.0
2008-04-27,3890.0
2008-04-28,3780.0
2008-04-29,3780.0
2008-04-30,3430.0
2008-05-01,3210.0
2008-05-02,3040.0
2008-05-03,3110.0
2008-05-04,3360.0
2008-05-05,3440.0
2008-05-06,3430.0
2008-05-07,3320.0
2008-05-08,3250.0
2008-05-09,3470.0
2008-05-10,3570.0
2008-05-11,3580.0
2008-05-12,3640.0
2008-05-13,3480.0
2008-05-14,3090.0
2008-05-15,2950.0
2008-05-16,3050.0
2008-05-17,3140.0
2008-05-18,3080.0
2008-05-19,2530.0
2008-05-20,2190.0
2008-05-21,2110.0
2008-05-22,2590.0
2008-05-23,3680.0
2008-05-24,4620.0
2008-05-25,5230.0
2008-05-26,5100.0
2008-05-27,4670.0
2008-05-28,3890.0
2008-05-29,3190.0
2008-05-30,2860.0
2008-05-31,3170.0
2008-06-01,3610.0
2008-06-02,3980.0
2008-06-03,4020.0
2008-06-04,3940.0
2008-06-05,3860.0
2008-06-06,4080.0
2008-06-07,4150.0
2008-06-08,4240.0
2008-06-09,4620.0
2008-06-10,5060.0
2008-06-11,4490.0
2008-06-12,3020.0
2008-06-13,2780.0
2008-06-14,2480.0
2008-06-15,2320.0
2008-06-16,2390.0
2008-06-17,2380.0
2008-06-18,1940.0
2008-06-19,1610.0
2008-06-20,1600.0
2008-06-21,1580.0
2008-06-22,1670.0
2008-06-23,1720.0
2008-06-24,1670.0
2008-06-25,1490.0
2008-06-26,1260.0
2008-06-27,1200.0
2008-06-28,1210.0
2008-06-29,1160.0
2008-06-30,1250.0
2008-07-01,1240.0
2008-07-02,1440.0
2008-07-03,1360.0
2008-07-04,1080.0
2008-07-05,804.0
2008-07-06,630.0
2008-07-07,600.0
2008-07-08,560.0
2008-07-09,404.0
2008-07-10,329.0
2008-07-11,549.0
2008-07-12,609.0
2008-07-13,637.0
2008-07-14,639.0
2008-07-15,607.0
2008-07-16,460.0
2008-07-17,391.0
2008-07-18,390.0
2008-07-19,575.0
2008-07-20,486.0
2008-07-21,538.0
2008-07-22,616.0
2008-07-23,678.0
2008-07-24,652.0
2008-07-25,278.0
2008-07-26,286.0
2008-07-27,358.0
2008-07-28,225.0
2008-07-29,130.0
2008-07-30,126.0
2008-07-31,127.0
2008-08-01,131.0
2008-08-02,103.0
2008-08-03,99.2
2008-08-04,145.0
2008-08-05,222.0
2008-08-06,537.0
2008-08-07,202.0
2008-08-08,108.0
2008-08-09,392.0
2008-08-10,172.0
2008-08-11,145.0
2008-08-12,125.0
2008-08-13,133.0
2008-08-14,133.0
2008-08-15,133.0
2008-08-16,144.0
2008-08-17,284.0
2008-08-18,258.0
2008-08-19,255.0
2008-08-20,231.0
2008-08-21,202.0
2008-08-22,185.0
2008-08-23,171.0
2008-08-24,202.0
2008-08-25,255.0
2008-08-26,180.0
2008-08-27,174.0
2008-08-28,176.0
2008-08-29,279.0
2008-08-30,232.0
2008-08-31,325.0
2008-09-01,613.0
2008-09-02,640.0
2008-09-03,358.0
2008-09-04,201.0
2008-09-05,139.0
2008-09-06,119.0
2008-09-07,107.0
2008-09-08,106.0
2008-09-09,112.0
2008-09-10,304.0
2008-09-11,232.0
2008-09-12,160.0
2008-09-13,164.0
2008-09-14,161.0
2008-09-15,158.0
2008-09-16,156.0
2008-09-17,159.0
2008-09-18,154.0
2008-09-19,157.0
2008-09-20,166.0
2008-09-21,178.0
2008-09-22,181.0
2008-09-23,160.0
2008-09-24,161.0
2008-09-25,169.0
2008-09-26,163.0
2008-09-27,165.0
2008-09-28,161.0
2008-09-29,156.0
2008-09-30,157.0
2008-10-01,154.0
2008-10-02,154.0
2008-10-03,151.0
2008-10-04,152.0
2008-10-05,899.0
2008-10-06,713.0
2008-10-07,451.0
2008-10-08,408.0
2008-10-09,425.0
2008-10-10,416.0
2008-10-11,406.0
2008-10-12,833.0
2008-10-13,642.0
2008-10-14,647.0
2008-10-15,725.0
2008-10-16,502.0
2008-10-17,450.0
2008-10-18,385.0
2008-10-19,332.0
2008-10-20,270.0
2008-10-21,175.0
2008-10-22,163.0
2008-10-23,154.0
2008-10-24,161.0
2008-10-25,164.0
2008-10-26,162.0
2008-10-27,151.0
2008-10-28,152.0
2008-10-29,160.0
2008-10-30,138.0
2008-10-31,211.0
2008-11-01,412.0
2008-11-02,425.0
2008-11-03,431.0
2008-11-04,383.0
2008-11-05,412.0
2008-11-06,410.0
2008-11-07,414.0
2008-11-08,387.0
2008-11-09,388.0
2008-11-10,438.0
2008-11-11,450.0
2008-11-12,438.0
2008-11-13,462.0
2008-11-14,501.0
2008-11-15,605.0
2008-11-16,582.0
2008-11-17,600.0
2008-11-18,560.0
2008-11-19,487.0
2008-11-20,480.0
2008-11-21,489.0
2008-11-22,497.0
2008-11-23,497.0
2008-11-24,492.0
2008-11-25,494.0
2008-11-26,483.0
2008-11-27,499.0
2008-11-28,543.0
2008-11-29,513.0
2008-11-30,487.0
2008-12-01,483.0
2008-12-02,475.0
2008-12-03,462.0
2008-12-04,452.0
2008-12-05,457.0
2008-12-06,489.0
2008-12-07,490.0
2008-12-08,490.0
2008-12-09,485.0
2008-12-10,494.0
2008-12-11,496.0
2008-12-12,489.0
2008-12-13,489.0
2008-12-14,496.0
2008-12-15,517.0
2008-12-16,621.0
2008-12-17,659.0
2008-12-18,704.0
2008-12-19,830.0
2008-12-20,861.0
2008-12-21,833.0
2008-12-22,809.0
2008-12-23,818.0
2008-12-24,825.0
2008-12-25,782.0
2008-12-26,771.0
2008-12-27,793.0
2008-12-28,780.0
2008-12-29,790.0
2008-12-30,796.0
2008-12-31,822.0
2009-01-01,831.0
2009-01-02,833.0
2009-01-03,812.0
2009-01-04,725.0
2009-01-05,657.0
2009-01-06,637.0
2009-01-07,780.0
2009-01-08,787.0
2009-01-09,808.0
2009-01-10,815.0
2009-01-11,802.0
2009-01-12,801.0
2009-01-13,826.0
2009-01-14,831.0
2009-01-15,838.0
2009-01-16,831.0
2009-01-17,827.0
2009-01-18,829.0
2009-01-19,840.0
2009-01-20,858.0
2009-01-21,844.0
2009-01-22,859.0
2009-01-23,810.0
2009-01-24,793.0
2009-01-25,792.0
2009-01-26,788.0
2009-01-27,772.0
2009-01-28,766.0
2009-01-29,776.0
2009-01-30,761.0
2009-01-31,753.0
2009-02-01,707.0
2009-02-02,714.0
2009-02-03,701.0
2009-02-04,750.0
2009-02-05,770.0
2009-02-06,781.0
2009-02-07,783.0
2009-02-08,782.0
2009-02-09,811.0
2009-02-10,772.0
2009-02-11,769.0
2009-02-12,734.0
2009-02-13,741.0
2009-02-14,709.0
2009-02-15,721.0
2009-02-16,694.0
2009-02-17,708.0
2009-02-18,719.0
2009-02-19,714.0
2009-02-20,775.0
2009-02-21,770.0
2009-02-22,797.0
2009-02-23,798.0
2009-02-24,694.0
2009-02-25,643.0
2009-02-26,670.0
2009-02-27,698.0
2009-02-28,683.0
2009-03-01,803.0
2009-03-02,689.0
2009-03-03,623.0
2009-03-04,727.0
2009-03-05,780.0
2009-03-06,782.0
2009-03-07,775.0
2009-03-08,641.0
2009-03-09,673.0
2009-03-10,701.0
2009-03-11,764.0
2009-03-12,709.0
2009-03-13,619.0
2009-03-14,644.0
2009-03-15,687.0
2009-03-16,611.0
2009-03-17,589.0
2009-03-18,531.0
2009-03-19,518.0
2009-03-20,472.0
2009-03-21,466.0
2009-03-22,466.0
2009-03-23,466.0
2009-03-24,498.0
2009-03-25,655.0
2009-03-26,886.0
2009-03-27,990.0
2009-03-28,1050.0
2009-03-29,1080.0
2009-03-30,1120.0
2009-03-31,1110.0
2009-04-01,1130.0
2009-04-02,1120.0
2009-04-03,967.0
2009-04-04,971.0
2009-04-05,906.0
2009-04-06,758.0
2009-04-07,623.0
2009-04-08,590.0
2009-04-09,615.0
2009-04-10,598.0
2009-04-11,559.0
2009-04-12,682.0
2009-04-13,751.0
2009-04-14,864.0
2009-04-15,934.0
2009-04-16,953.0
2009-04-17,999.0
2009-04-18,1110.0
2009-04-19,1050.0
2009-04-20,1050.0
2009-04-21,973.0
2009-04-22,915.0
2009-04-23,921.0
2009-04-24,1030.0
2009-04-25,1290.0
2009-04-26,1550.0
2009-04-27,1990.0
2009-04-28,2450.0
2009-04-29,2560.0
2009-04-30,2100.0
2009-05-01,2160.0
2009-05-02,2730.0
2009-05-03,3200.0
2009-05-04,3160.0
2009-05-05,3450.0
2009-05-06,3670.0
2009-05-07,3560.0
2009-05-08,3450.0
2009-05-09,3950.0
2009-05-10,4200.0
2009-05-11,4230.0
2009-05-12,4190.0
2009-05-13,4440.0
2009-05-14,4710.0
2009-05-15,4600.0
2009-05-16,4470.0
2009-05-17,4230.0
2009-05-18,4100.0
2009-05-19,3820.0
2009-05-20,3630.0
2009-05-21,3530.0
2009-05-22,3430.0
2009-05-23,3560.0
2009-05-24,3680.0
2009-05-25,3780.0
2009-05-26,4060.0
2009-05-27,4060.0
2009-05-28,3790.0
2009-05-29,3670.0
2009-05-30,2110.0
2009-05-31,1150.0
2009-06-01,912.0
2009-06-02,1010.0
2009-06-03,2020.0
2009-06-04,2190.0
2009-06-05,2280.0
2009-06-06,2280.0
2009-06-07,2160.0
2009-06-08,2120.0
2009-06-09,1960.0
2009-06-10,1880.0
2009-06-11,2070.0
2009-06-12,1920.0
2009-06-13,1750.0
2009-06-14,1430.0
2009-06-15,1410.0
2009-06-16,1450.0
2009-06-17,1330.0
2009-06-18,999.0
2009-06-19,879.0
2009-06-20,743.0
2009-06-21,677.0
2009-06-22,533.0
2009-06-23,539.0
2009-06-24,563.0
2009-06-25,541.0
2009-06-26,395.0
2009-06-27,297.0
2009-06-28,395.0
2009-06-29,604.0
2009-06-30,725.0
2009-07-01,866.0
2009-07-02,971.0
2009-07-03,859.0
2009-07-04,816.0
2009-07-05,734.0
2009-07-06,683.0
2009-07-07,556.0
2009-07-08,413.0
2009-07-09,340.0
2009-07-10,202.0
2009-07-11,108.0
2009-07-12,95.6
2009-07-13,91.4
2009-07-14,93.0
2009-07-15,88.3
2009-07-16,84.7
2009-07-17,85.4
2009-07-18,87.6
2009-07-19,101.0
2009-07-20,110.0
2009-07-21,95.1
2009-07-22,354.0
2009-07-23,269.0
2009-07-24,233.0
2009-07-25,216.0
2009-07-26,182.0
2009-07-27,170.0
2009-07-28,173.0
2009-07-29,165.0
2009-07-30,131.0
2009-07-31,135.0
2009-08-01,166.0
2009-08-02,218.0
2009-08-03,151.0
2009-08-04,96.6
2009-08-05,84.0
2009-08-06,83.0
2009-08-07,94.9
2009-08-08,98.2
2009-08-09,110.0
2009-08-10,110.0
2009-08-11,112.0
2009-08-12,109.0
2009-08-13,108.0
2009-08-14,165.0
2009-08-15,324.0
2009-08-16,278.0
2009-08-17,246.0
2009-08-18,200.0
2009-08-19,132.0
2009-08-20,105.0
2009-08-21,103.0
2009-08-22,99.6
2009-08-23,105.0
2009-08-24,289.0
2009-08-25,345.0
2009-08-26,335.0
2009-08-27,230.0
2009-08-28,169.0
2009-08-29,147.0
2009-08-30,96.2
2009-08-31,101.0
2009-09-01,93.7
2009-09-02,100.0
2009-09-03,109.0
2009-09-04,115.0
2009-09-05,106.0
2009-09-06,116.0
2009-09-07,119.0
2009-09-08,118.0
2009-09-09,106.0
2009-09-10,179.0
2009-09-11,186.0
2009-09-12,235.0
2009-09-13,214.0
2009-09-14,224.0
2009-09-15,184.0
2009-09-16,191.0
2009-09-17,829.0
2009-09-18,1000.0
2009-09-19,518.0
2009-09-20,326.0
2009-09-21,381.0
2009-09-22,203.0
2009-09-23,103.0
2009-09-24,107.0
2009-09-25,116.0
2009-09-26,112.0
2009-09-27,111.0
2009-09-28,123.0
2009-09-29,113.0
2009-09-30,114.0
2009-10-01,110.0
2009-10-02,110.0
2009-10-03,108.0
2009-10-04,108.0
2009-10-05,111.0
2009-10-06,118.0
2009-10-07,110.0
2009-10-08,108.0
2009-10-09,114.0
2009-10-10,111.0
2009-10-11,118.0
2009-10-12,114.0
2009-10-13,103.0
2009-10-14,99.9
2009-10-15,100.0
2009-10-16,102.0
2009-10-17,104.0
2009-10-18,106.0
2009-10-19,139.0
2009-10-20,248.0
2009-10-21,453.0
2009-10-22,349.0
2009-10-23,149.0
2009-10-24,119.0
2009-10-25,222.0
2009-10-26,240.0
2009-10-27,226.0
2009-10-28,211.0
2009-10-29,267.0
2009-10-30,268.0
2009-10-31,384.0
2009-11-01,471.0
2009-11-02,478.0
2009-11-03,456.0
2009-11-04,443.0
2009-11-05,444.0
2009-11-06,446.0
2009-11-07,469.0
2009-11-08,466.0
2009-11-09,474.0
2009-11-10,450.0
2009-11-11,439.0
2009-11-12,460.0
2009-11-13,461.0
2009-11-14,464.0
2009-11-15,474.0
2009-11-16,531.0
2009-11-17,561.0
2009-11-18,534.0
2009-11-19,551.0
2009-11-20,576.0
2009-11-21,568.0
2009-11-22,591.0
2009-11-23,626.0
2009-11-24,611.0
2009-11-25,546.0
2009-11-26,550.0
2009-11-27,578.0
2009-11-28,569.0
2009-11-29,544.0
2009-11-30,572.0
2009-12-01,544.0
2009-12-02,565.0
2009-12-03,572.0
2009-12-04,575.0
2009-12-05,559.0
2009-12-06,514.0
2009-12-07,514.0
2009-12-08,550.0
2009-12-09,626.0
2009-12-10,652.0
2009-12-11,628.0
2009-12-12,562.0
2009-12-13,585.0
2009-12-14,593.0
2009-12-15,607.0
2009-12-16,706.0
2009-12-17,704.0
2009-12-18,683.0
2009-12-19,657.0
2009-12-20,660.0
2009-12-21,676.0
2009-12-22,653.0
2009-12-23,669.0
2009-12-24,660.0
2009-12-25,669.0
2009-12-26,678.0
2009-12-27,666.0
2009-12-28,640.0
2009-12-29,616.0
2009-12-30,522.0
2009-12-31,567.0
2010-01-01,616.0
2010-01-02,664.0
2010-01-03,678.0
2010-01-04,681.0
2010-01-05,692.0
2010-01-06,714.0
2010-01-07,723.0
2010-01-08,725.0
2010-01-09,730.0
2010-01-10,709.0
2010-01-11,722.0
2010-01-12,709.0
2010-01-13,706.0
2010-01-14,725.0
2010-01-15,727.0
2010-01-16,722.0
2010-01-17,717.0
2010-01-18,718.0
2010-01-19,766.0
2010-01-20,788.0
2010-01-21,761.0
2010-01-22,790.0
2010-01-23,864.0
2010-01-24,797.0
2010-01-25,782.0
2010-01-26,734.0
2010-01-27,670.0
2010-01-28,701.0
2010-01-29,720.0
2010-01-30,717.0
2010-01-31,703.0
2010-02-01,708.0
2010-02-02,709.0
2010-02-03,717.0
2010-02-04,725.0
2010-02-05,732.0
2010-02-06,741.0
2010-02-07,740.0
2010-02-08,752.0
2010-02-09,737.0
2010-02-10,713.0
2010-02-11,694.0
2010-02-12,700.0
2010-02-13,712.0
2010-02-14,737.0
2010-02-15,751.0
2010-02-16,768.0
2010-02-17,766.0
2010-02-18,719.0
2010-02-19,656.0
2010-02-20,741.0
2010-02-21,742.0
2010-02-22,748.0
2010-02-23,748.0
2010-02-24,748.0
2010-02-25,721.0
2010-02-26,697.0
2010-02-27,705.0
2010-02-28,698.0
2010-03-01,635.0
2010-03-02,639.0
2010-03-03,591.0
2010-03-04,509.0
2010-03-05,527.0
2010-03-06,602.0
2010-03-07,649.0
2010-03-08,691.0
2010-03-09,701.0
2010-03-10,705.0
2010-03-11,714.0
2010-03-12,696.0
2010-03-13,658.0
2010-03-14,653.0
2010-03-15,655.0
2010-03-16,633.0
2010-03-17,634.0
2010-03-18,631.0
2010-03-19,588.0
2010-03-20,627.0
2010-03-21,714.0
2010-03-22,668.0
2010-03-23,669.0
2010-03-24,707.0
2010-03-25,777.0
2010-03-26,828.0
2010-03-27,856.0
2010-03-28,841.0
2010-03-29,806.0
2010-03-30,770.0
2010-03-31,753.0
2010-04-01,797.0
2010-04-02,911.0
2010-04-03,919.0
2010-04-04,910.0
2010-04-05,892.0
2010-04-06,965.0
2010-04-07,1000.0
2010-04-08,933.0
2010-04-09,912.0
2010-04-10,881.0
2010-04-11,848.0
2010-04-12,891.0
2010-04-13,1130.0
2010-04-14,1680.0
2010-04-15,1940.0
2010-04-16,2380.0
2010-04-17,2780.0
2010-04-18,2730.0
2010-04-19,2180.0
2010-04-20,1890.0
2010-04-21,2380.0
2010-04-22,2900.0
2010-04-23,2800.0
2010-04-24,2520.0
2010-04-25,2570.0
2010-04-26,2600.0
2010-04-27,2130.0
2010-04-28,1860.0
2010-04-29,1770.0
2010-04-30,1690.0
2010-05-01,1620.0